ROMMA est une association bénévole à but non lucratif. Votre soutien est indispensable : ADHERER à ROMMA ou FAIRE un DON

Val-d'Isère - (73, Savoie)

Haute-Maurienne (1850 m)   Longitude: 6° 58' 52'' E   Latitude: 45° 26' 53'' N Station partenaire n°93
 

Détail journalier du     <<     >>

Température Precipitation Humidité Vent Dir Rafale Dir. rafale Ensol.
Heure (°C) (mm) (%) (km/h) (km/h) (min)
01:00 0.30752ESE8ENE0
02:00 -0.10706E15ESE0
03:00 -0.60714NE10ESE0
04:00 -0.70705N18ESE0
05:00 -1.30708E16ESE0
06:00 -2.20729ENE18ENE0
07:00 -2.90735NNE13E0
08:00 -3.20732ENE8ENE30
09:00 -2.90666ESE15ESE60
10:00 -1.30587ESE16ESE60
11:00 0.305910E15E60
12:00 1.80539E18E60
13:00 2.80488ESE16ESE60
14:00 3.804110ESE18E60
15:00 5.70358ESE23O60
16:00 5.803610SSE23SSE60
17:00 4.90439S29S60
18:00 3.40519SE24OSO30
19:00 2.70527ESE29SSE0
20:00 1.405610OSO27OSO0
21:00 0.30608SSE24SE0
22:00 -0.20654SSE21O0
23:00 -1.20638SSO21O0
minuit -2.105914E21ESE0

Graphique du 13-04-2019

 

Serveur OMMA